Weather Service Report


316 
ASUS43 KTOP 270559
RWRKS 

WEATHER ROUNDUP FOR KANSAS
NATIONAL WEATHER SERVICE GOODLAND KS
100 AM CDT TUE SEP 27 2016

NOTE:  "FAIR" INDICATES FEW OR NO CLOUDS BELOW 12,000 FEET WITH NO
SIGNIFICANT WEATHER AND/OR OBSTRUCTIONS TO VISIBILITY.

KSZ001>006-013>018-027>032-041>047-270700-
NORTHWEST KANSAS
  
CITY           SKY/WX    TMP DP  RH WIND       PRES   REMARKS
GOODLAND       CLEAR     51  40  65 W6        30.22F                  
6HR MIN TEMP:  50; 6HR MAX TEMP:  74;                                

HAYS           CLEAR     54  37  54 S6        30.14F                  
HILL CITY      CLEAR     49  45  86 W3        30.15F                  
6HR MIN TEMP:  49; 6HR MAX TEMP:  74;                                

RUSSELL        CLEAR     55  44  66 S9        30.13F                  
6HR MIN TEMP:  55; 6HR MAX TEMP:  73;                                

$$

KSZ061>065-074>080-084>089-270700-
SOUTHWEST KANSAS
  
CITY           SKY/WX    TMP DP  RH WIND       PRES   REMARKS
DODGE CITY     CLEAR     51  41  68 S8        30.19S                  
6HR MIN TEMP:  50; 6HR MAX TEMP:  74;                                

ELKHART          N/A     58  34  40 SW9         N/A                   
GARDEN CITY    CLEAR     52  35  52 NW8       30.19F                  
6HR MIN TEMP:  52; 6HR MAX TEMP:  75;                                

GREAT BEND     CLEAR     54  39  58 SW8       30.16F                  
LIBERAL        CLOUDY    54  34  47 SW9       30.22S                  
$$

KSZ066>073-081>083-090>101-270700-
SOUTHEAST KANSAS
  
CITY           SKY/WX    TMP DP  RH WIND       PRES   REMARKS
CHANUTE        CLEAR     54  49  83 CALM      30.14F                  
6HR MIN TEMP:  52; 6HR MAX TEMP:  70;                                

COFFEYVILLE    CLEAR     50  49  96 CALM      30.16F                  
6HR MIN TEMP:  50; 6HR MAX TEMP:  69;                                

HUTCHINSON     CLEAR     58  47  66 SW6       30.16F                  
6HR MIN TEMP:  51; 6HR MAX TEMP:  69;                                

MEDICINE LODGE   N/A     51  48  89 CALM      30.17F                  
NEWTON         CLEAR    N/A N/A N/A SW8       30.16F                  
PARSONS        CLEAR     49  47  93 CALM      30.16F                  
6HR MIN TEMP:  48; 6HR MAX TEMP:  65;                                

WICHITA INTL   CLEAR     55  47  74 SW6       30.16F                  
6HR MIN TEMP:  54; 6HR MAX TEMP:  70;                                

WICHITA JABRA  CLEAR     58  48  69 SW9       30.16F                  
6HR MIN TEMP:  57; 6HR MAX TEMP:  69;                                

WICHITA MCCONL CLEAR     55  48  76 SW6       30.17S                  
WINFIELD       CLEAR     54  51  90 CALM      30.18S                  
6HR MIN TEMP:  53; 6HR MAX TEMP:  67;                                

$$

KSZ007>012-019>026-033>040-048>060-102>105-270700-
NORTHEAST KANSAS
  
CITY           SKY/WX    TMP DP  RH WIND       PRES   REMARKS
CONCORDIA      CLEAR     54  46  74 W9        30.12S                  
6HR MIN TEMP:  54; 6HR MAX TEMP:  68;                                

EMPORIA        CLEAR     54  46  74 SW7       30.14S                  
6HR MIN TEMP:  53; 6HR MAX TEMP:  68;                                

LAWRENCE       CLEAR     50  50 100 N3        30.11F                  
6HR MIN TEMP:  50; 6HR MAX TEMP:  69;                                

MANHATTAN      CLEAR     51  48  89 SW3       30.12F                  
6HR MIN TEMP:  51; 6HR MAX TEMP:  68;                                

OLATHE IND     CLEAR     56  47  71 SW7       30.12F                  
6HR MIN TEMP:  54; 6HR MAX TEMP:  68;                                

OLATHE EXE     CLEAR     54  48  80 SW3       30.11F                  
6HR MIN TEMP:  54; 6HR MAX TEMP:  67;                                

SALINA         CLEAR     56  48  74 S9        30.13F                  
6HR MIN TEMP:  54; 6HR MAX TEMP:  75;                                

TOPEKA BILLARD CLEAR     54  50  86 CALM      30.11F                  
6HR MIN TEMP:  53; 6HR MAX TEMP:  69;                                

TOPEKA FORBES  CLEAR     58  47  66 SW6       30.11F                  
6HR MIN TEMP:  57; 6HR MAX TEMP:  68;                                

$$
  

Return to Home page


Western Regional Climate Center, wrcc@dri.edu